DELTA 2 R/B

基本信息
目录编号:
20571
目录名称:
DELTA 2 R/B
国际标识:
1990-034B
轨道中心:
EARTH
物体状态:
在轨
发射日期:
1990-04-13 UTC
国别:
美国 (US)
轨道信息
数据来源: 国际轨道数据
星历时间: 2026-09-11T06:20:48+0800
半长轴: 7194.78km
偏心率: 0.0467062
轨道倾角: 22.741°
近地点辐角: 100.480°
升交点赤经: 104.716°
平近点角: 264.862°
近地点: 480.602km
远地点: 1152.684km
周期: 101.225分钟
每日圈数: 14.225795
详细信息
发射场:
AFETR
轨道高度:
LEO
数据来源:
AOE Integration Group
参考系:
TEME
时间系统:
UTC
历元类型:
SGP4
2D轨道图
3D轨道图
轨道高度分析图
轨道倾角分析图
轨道综合分析图
查看轨道综合分析图